RH
22 23 20 14 13 12 10 12 11 11 12 12 16 26 37 39 34 31 33 35 33 31 30 31 31 30 28 26 22 21 24 30 32 33 34 34 32 30 29 29 30 31 32 31 30 34 37 35 33 30 30 31 31 32 31 31 30 26 25 26 28 31 32 31 28 28 28 28 28 27 25 26 30 33 35 35 38 43 47 49 47 45 45 44 46 52
22 21 17 10 9 10 10 11 11 11 11 11 15 24 33 36 32 29 31 34 34 32 29 29 31 30 28 27 25 22 20 24 29 31 32 33 34 32 29 28 29 31 34 33 29 30 33 35 34 30 29 28 28 27 27 27 27 26 25 25 27 30 31 29 27 25 24 24 25 25 26 30 33 34 33 34 38 43 47 49 46 43 43 44 46 52
23 19 14 11 8 8 10 11 11 11 10 10 13 22 30 31 30 30 30 32 36 35 32 31 32 30 29 27 25 24 20 19 23 27 30 33 34 34 31 29 28 31 34 32 29 25 27 32 33 31 28 26 26 25 25 25 25 25 23 23 26 27 27 26 24 22 22 24 28 30 33 38 40 40 38 37 42 45 48 50 48 46 45 44 47 50
26 20 13 11 10 9 10 10 11 11 11 10 10 16 22 23 27 32 34 33 33 33 31 30 29 28 28 27 25 24 21 18 19 22 27 32 34 35 33 30 29 30 32 32 30 24 22 26 30 30 27 26 25 24 22 22 22 22 20 21 23 23 22 21 19 18 21 27 32 34 37 41 44 45 44 42 42 42 42 43 43 43 44 44 46 47
23 19 15 13 12 12 12 11 12 12 11 10 9 11 14 17 21 26 32 35 33 30 30 28 26 26 25 25 24 23 20 18 18 18 22 26 31 34 34 31 30 31 33 34 32 26 22 21 23 26 27 26 24 22 20 19 19 19 19 20 21 21 20 18 15 15 20 26 31 32 35 38 37 36 35 31 31 32 32 33 32 34 37 40 43 44
20 18 19 18 14 14 14 13 10 10 13 13 10 8 10 13 13 17 29 38 35 33 31 29 28 26 25 24 23 21 19 18 18 18 20 23 26 30 33 32 30 32 34 36 35 30 24 20 20 23 25 24 23 22 19 18 18 18 20 21 21 21 19 16 13 13 17 21 24 25 26 26 23 20 20 19 23 27 29 31 34 36 35 35 38 40
19 17 21 22 18 15 16 16 11 10 19 22 13 8 9 10 9 15 32 41 37 34 32 30 28 27 26 24 23 22 21 19 18 19 21 23 24 26 29 32 32 31 33 35 36 33 28 23 20 18 20 21 20 20 20 19 18 19 20 21 21 20 18 15 13 12 15 17 18 19 18 18 17 17 18 22 28 32 34 37 41 43 40 37 37 35
17 16 22 25 23 19 16 17 14 11 21 25 14 8 9 10 9 16 33 42 40 38 35 33 31 28 27 25 23 23 22 20 19 18 19 21 23 25 26 29 31 32 32 33 34 35 32 26 20 16 16 16 17 20 20 18 17 18 18 19 19 19 17 15 12 12 13 14 15 15 15 16 15 17 21 26 31 34 37 39 41 43 43 41 39 35
14 14 16 19 24 23 17 14 11 10 19 23 15 12 12 11 12 21 34 40 39 36 32 30 29 27 26 25 23 22 23 22 20 17 17 18 20 23 26 27 29 31 32 33 33 34 34 30 22 17 14 13 16 19 19 16 16 16 17 17 17 16 15 13 12 12 12 13 15 15 15 15 15 18 22 26 31 35 36 37 40 42 43 42 40 37
13 12 11 13 20 21 15 13 11 11 17 19 17 19 18 15 17 26 34 34 31 29 28 28 27 25 25 24 23 22 22 22 20 17 17 17 17 20 24 27 28 29 32 33 33 33 34 33 26 19 16 14 15 17 17 16 15 16 16 16 15 14 13 11 11 12 13 13 14 15 15 15 16 18 21 25 28 33 34 33 35 38 39 39 39 38
13 13 14 16 18 15 12 13 14 14 16 16 19 24 24 23 25 29 32 30 28 28 28 27 27 25 24 24 22 20 20 20 20 18 17 17 17 18 21 24 25 28 30 32 33 33 34 35 31 23 18 15 14 14 16 16 15 14 15 15 14 13 12 12 11 12 12 13 14 14 15 15 17 17 19 21 23 27 29 29 30 33 35 37 37 36
15 16 18 17 15 15 15 17 18 19 19 19 23 25 25 27 28 29 29 28 29 29 26 24 24 24 23 24 21 18 18 19 19 19 18 17 17 17 18 21 23 26 29 31 33 33 34 35 34 28 20 16 14 13 14 14 14 14 13 14 14 14 14 13 12 12 12 13 13 14 15 15 17 19 18 18 19 21 24 27 29 30 33 36 36 35
19 19 18 17 15 15 17 21 24 25 24 24 25 26 25 26 26 26 26 26 26 26 21 18 19 20 21 21 19 15 16 18 18 18 18 17 16 17 17 18 21 24 27 30 32 32 34 34 35 33 25 18 15 13 13 12 12 13 13 13 13 13 14 14 14 13 12 13 13 13 14 15 17 19 18 17 18 20 21 24 27 27 29 31 35 37
24 22 19 20 21 17 17 22 27 28 28 27 26 25 24 24 24 23 23 23 21 20 18 15 15 18 18 15 13 12 13 15 17 18 17 16 16 17 17 17 19 23 25 28 30 31 33 34 34 35 31 24 19 14 13 13 12 12 12 12 13 12 13 14 14 15 14 14 14 14 14 14 16 17 17 17 16 17 19 21 23 23 24 24 28 36
26 25 21 20 20 18 18 21 22 22 24 25 25 24 23 22 21 20 19 19 17 17 18 17 15 16 15 12 12 12 13 14 15 16 16 16 16 16 17 17 17 22 25 26 27 29 31 33 34 35 34 32 29 22 15 13 13 13 12 12 12 12 13 13 14 14 14 14 14 15 15 15 15 15 15 16 16 17 18 19 20 21 22 21 21 28
26 25 19 16 16 16 17 20 21 20 22 23 23 23 24 23 20 17 17 17 16 17 20 20 18 16 13 12 12 11 11 12 13 15 15 16 16 16 16 17 17 20 23 23 24 25 28 31 33 33 34 35 35 34 27 18 13 12 12 13 12 11 11 12 13 13 13 14 14 14 15 15 15 15 14 14 15 15 16 18 19 20 22 22 19 20
26 25 20 17 18 17 17 18 20 21 24 25 25 25 25 24 21 18 18 19 18 18 20 21 18 15 12 10 9 9 9 11 11 13 15 15 16 16 16 16 17 18 19 18 18 18 21 27 30 32 33 34 35 38 37 32 24 16 12 11 12 12 12 12 12 12 12 13 13 14 14 14 14 14 14 14 14 15 15 16 18 19 21 21 20 18
25 25 22 21 20 18 18 20 20 20 21 24 26 26 25 26 24 22 22 23 20 18 20 20 16 15 15 12 9 8 7 9 10 12 14 15 15 16 16 16 16 16 15 15 15 15 16 20 26 30 32 33 34 36 38 39 38 33 24 17 13 11 12 12 12 13 13 13 14 14 14 14 14 14 14 14 14 15 15 16 17 19 20 20 20 18
24 23 22 21 20 18 19 23 24 23 22 21 22 24 25 25 26 26 26 25 22 20 20 20 17 16 16 13 12 10 9 9 9 10 12 15 15 15 16 15 15 15 14 14 14 15 16 17 21 26 29 31 33 34 36 38 40 41 40 34 28 21 16 13 13 13 14 14 14 15 15 15 15 15 14 14 15 15 15 17 17 18 19 20 20 20
25 23 22 21 19 20 22 25 27 26 25 23 22 23 23 22 24 26 26 23 22 21 21 20 18 16 14 11 10 9 9 9 9 9 10 12 14 14 14 15 15 15 14 14 15 15 15 16 18 22 26 29 30 32 35 36 38 39 41 42 42 38 34 29 27 26 24 20 17 16 16 16 16 16 15 15 15 15 15 16 18 19 20 20 20 20
26 24 24 22 19 21 23 25 25 24 24 24 24 24 23 21 22 24 24 21 20 21 21 20 18 15 11 9 7 6 6 6 7 9 9 9 10 11 12 13 15 15 14 14 14 14 14 14 15 18 22 26 28 30 32 34 36 38 39 41 42 43 44 43 43 43 40 34 28 23 19 17 17 16 16 15 15 15 16 17 18 19 20 20 19 19
28 26 26 23 21 21 22 21 20 18 18 19 20 22 22 21 20 21 23 22 19 19 21 20 17 15 12 9 8 8 7 6 6 7 7 8 11 12 13 13 15 15 15 14 14 14 14 14 14 15 18 22 26 29 31 32 34 36 37 39 40 42 43 45 47 46 45 43 41 37 31 26 21 18 17 16 16 16 16 17 18 19 20 20 19 18
30 28 27 24 22 21 21 20 18 17 17 16 17 18 19 21 20 21 23 22 20 20 20 20 19 19 16 12 10 10 9 8 7 7 7 8 11 12 12 13 14 15 15 15 15 15 15 14 14 14 16 19 22 26 28 31 32 34 36 38 39 41 42 44 46 46 47 47 46 46 46 41 34 27 22 19 17 17 17 17 17 18 19 20 19 17
32 32 30 27 26 23 21 20 19 18 19 19 19 18 18 19 18 19 21 21 20 20 20 20 21 21 17 13 11 11 10 10 9 8 8 8 9 10 12 13 14 14 14 14 14 15 15 14 14 14 15 16 19 23 26 29 30 32 35 36 38 39 41 43 44 46 47 47 46 48 50 47 43 37 31 27 23 21 19 18 18 18 18 19 17 15
37 37 34 30 30 27 24 22 20 19 19 20 21 21 20 19 16 17 20 20 19 20 18 19 21 19 16 13 12 12 11 10 10 9 9 8 8 9 11 12 13 13 14 14 14 14 14 15 15 15 15 16 18 21 24 27 29 30 32 35 36 38 40 42 43 45 47 47 47 47 46 45 42 37 33 32 32 30 26 19 15 15 16 17 15 12
41 41 37 33 33 33 32 30 26 22 21 21 20 20 20 19 18 19 19 20 21 21 18 18 19 18 15 14 13 12 11 11 10 10 9 9 9 9 10 11 11 12 12 13 13 13 13 14 14 14 15 17 18 20 23 25 29 30 31 33 35 37 38 40 42 43 45 47 47 45 43 41 37 32 31 34 37 37 33 23 13 9 11 12 11 9
43 42 39 36 37 40 39 37 32 27 25 24 21 19 20 20 20 19 20 21 22 22 20 18 18 18 16 15 14 13 12 11 10 10 10 9 8 9 9 10 11 11 12 12 12 12 12 13 13 13 13 16 18 20 23 25 28 30 31 33 34 36 37 39 41 42 44 45 45 42 40 38 34 30 30 33 38 39 35 28 17 8 7 8 7 7
45 44 42 40 42 44 40 36 35 32 30 29 24 20 19 20 20 20 20 21 21 21 22 19 17 17 17 16 15 14 12 12 11 10 10 9 8 8 8 10 11 10 10 10 9 10 11 12 13 13 12 15 19 21 23 26 28 30 32 33 34 35 36 38 39 40 41 43 42 38 36 36 34 32 30 33 38 38 35 30 22 11 6 6 5 5
45 47 47 45 45 47 42 37 38 37 35 33 29 24 21 19 20 21 21 21 20 20 20 19 17 17 16 16 16 15 13 12 11 11 11 10 9 8 9 9 10 9 9 9 8 8 10 12 13 13 12 13 17 21 23 26 28 30 31 32 33 34 36 36 37 37 39 40 38 34 34 37 36 34 33 34 36 34 31 29 24 14 8 6 5 4
46 49 50 46 44 45 42 39 38 37 36 35 31 28 24 21 21 22 22 20 19 19 18 17 17 16 15 15 14 14 14 13 13 13 12 11 9 9 9 9 8 8 8 9 10 9 9 11 12 13 12 12 14 19 23 26 28 30 30 31 32 33 32 30 30 34 37 37 36 34 37 39 38 35 35 35 34 34 32 29 24 18 11 7 5 4
47 49 47 44 43 41 39 38 37 37 37 36 32 28 26 25 24 23 23 22 21 20 19 17 17 17 15 15 14 13 14 14 13 13 13 12 10 9 9 9 10 9 8 9 11 10 9 10 11 12 12 12 12 16 21 24 27 29 30 31 31 30 29 26 27 32 35 34 34 36 39 40 39 37 36 35 35 36 36 31 26 21 16 11 6 4
45 45 43 44 45 41 38 36 36 36 36 35 31 28 25 24 24 24 24 24 24 23 21 19 19 18 16 15 15 14 14 14 14 14 13 12 11 11 11 11 12 12 10 9 9 9 9 10 11 11 11 12 13 16 18 22 25 28 29 30 30 30 30 29 30 32 34 33 34 36 38 38 37 35 35 35 35 36 38 36 30 25 21 16 10 5
40 40 44 47 47 44 40 37 37 36 35 33 31 28 25 23 23 24 23 22 24 24 24 23 21 18 16 15 15 14 14 15 14 13 12 11 10 11 12 12 12 13 12 10 9 9 9 9 10 11 11 12 14 15 17 20 24 26 27 28 30 30 31 31 31 32 32 32 32 33 34 35 35 34 34 34 35 38 39 37 33 28 25 21 16 9
35 36 42 47 47 45 41 37 39 38 35 35 35 31 29 26 22 22 21 20 20 21 22 23 22 19 17 16 16 16 15 14 14 13 13 12 11 11 11 12 13 13 13 12 10 9 9 9 9 10 11 13 15 16 16 19 22 24 25 26 28 29 29 30 30 30 30 31 31 32 33 34 34 34 34 35 38 40 39 36 35 33 30 25 21 15
29 31 36 42 45 45 43 40 41 41 37 37 36 33 33 34 31 28 25 21 19 19 18 19 19 18 18 17 17 16 15 14 13 13 13 13 12 12 12 13 13 13 13 12 11 9 9 9 9 9 11 13 15 16 16 17 20 22 23 24 25 26 27 28 28 28 28 28 29 30 31 33 34 34 36 38 40 40 37 36 37 37 34 30 25 21
22 23 32 43 45 43 43 44 44 43 38 33 33 32 33 36 36 35 33 29 24 21 19 17 16 16 15 16 16 16 15 14 13 12 12 13 12 12 12 12 13 13 12 12 11 9 9 9 9 9 11 12 14 16 17 17 18 20 21 22 23 23 24 25 25 25 24 25 27 28 29 30 32 34 36 38 39 39 37 36 36 37 37 35 30 25
20 22 30 43 47 41 39 41 42 42 38 32 31 32 35 40 40 39 39 36 29 25 22 19 18 17 15 15 16 16 15 15 14 12 12 12 12 12 12 12 13 13 12 11 10 9 9 9 9 9 10 11 12 14 16 17 18 19 20 20 21 22 23 24 24 25 24 24 25 26 28 30 32 34 36 38 39 39 37 34 34 36 39 38 33 29
24 24 25 35 43 39 35 37 38 38 39 39 35 32 35 42 45 44 45 41 32 27 26 22 20 19 17 16 16 16 16 16 15 13 12 12 12 12 12 12 13 13 12 11 10 9 8 8 9 9 10 11 12 12 13 14 16 18 19 19 20 22 23 24 25 25 25 24 24 26 28 31 33 34 34 33 33 34 33 32 33 35 38 38 36 33
33 30 31 42 50 45 36 34 33 36 44 49 48 45 43 45 48 49 47 43 35 29 28 25 22 20 19 17 17 16 16 17 15 13 12 12 12 12 12 12 13 12 12 11 10 9 8 7 8 8 9 11 13 12 11 11 13 17 20 20 20 21 22 23 25 25 25 25 25 27 30 32 33 30 25 22 22 24 26 28 30 33 36 36 35 34
58 47 47 57 61 55 46 37 31 36 43 41 42 49 52 52 53 51 50 52 47 36 30 26 22 21 20 18 18 17 16 17 15 13 13 12 13 13 12 12 12 12 12 11 10 9 8 7 7 7 8 13 16 16 13 11 12 16 19 20 20 20 21 22 23 24 25 26 26 28 30 30 28 25 20 18 18 18 20 22 26 29 31 31 30 29
89 75 69 69 63 58 56 45 34 37 40 32 31 37 40 44 52 55 58 62 55 42 38 33 25 22 21 18 18 17 16 16 16 14 13 13 13 13 12 12 12 12 12 12 10 10 8 7 7 7 7 14 20 20 17 16 15 16 19 19 19 20 20 21 22 23 24 26 26 27 28 27 24 20 18 19 20 20 20 21 22 24 26 28 29 28
98 90 83 77 68 62 60 52 44 42 38 28 28 33 32 39 56 63 61 58 48 40 41 38 29 25 22 18 18 17 16 15 15 14 14 13 13 13 12 12 12 12 12 12 11 11 9 7 8 7 7 13 19 18 16 17 17 17 19 19 18 19 20 20 21 21 22 24 26 27 27 25 20 18 19 22 23 23 22 22 21 22 22 24 26 27
90 89 85 79 71 65 63 60 58 57 45 26 22 30 34 41 55 57 52 51 48 42 37 32 28 26 22 19 18 16 15 15 14 14 14 13 13 13 12 13 13 12 12 12 11 11 10 8 8 7 8 14 19 19 16 14 12 13 16 17 17 18 18 19 20 21 20 21 25 27 26 22 18 18 21 23 24 23 24 23 22 21 21 23 26 29
80 87 89 84 73 65 63 61 58 60 53 31 20 25 32 40 51 53 50 51 51 44 34 29 27 23 20 20 18 15 15 15 14 14 14 13 13 13 13 15 15 13 12 12 11 11 11 9 9 11 15 18 19 19 17 13 10 9 12 17 18 17 17 17 18 20 20 21 24 25 23 19 18 19 21 22 22 24 26 27 25 21 21 26 32 35
87 93 97 97 92 85 79 69 60 58 50 37 35 39 37 39 49 53 50 49 50 46 37 28 25 23 21 20 18 16 16 15 14 15 14 13 14 15 16 18 18 15 14 12 12 12 12 10 10 14 20 21 18 17 16 12 9 9 11 17 20 20 19 18 18 20 22 23 24 22 19 18 19 21 22 22 23 25 28 30 31 27 24 25 30 35
82 87 91 92 95 97 88 66 53 54 49 47 60 64 49 41 49 52 48 47 51 50 41 30 26 25 23 21 19 18 16 17 19 20 16 14 17 19 20 21 20 18 16 14 13 12 12 12 11 12 16 18 17 16 14 11 10 9 10 14 19 20 21 21 22 23 25 26 25 22 21 22 23 24 25 25 25 26 28 29 32 32 30 27 28 32
71 78 82 78 80 90 88 68 53 53 56 65 79 76 57 46 48 48 46 51 56 57 52 45 41 36 31 28 28 27 23 22 30 34 28 23 25 26 24 23 21 20 18 17 15 13 12 12 12 11 11 12 13 13 12 10 12 12 12 14 18 20 22 23 24 25 27 27 26 24 24 25 26 26 27 27 28 29 30 30 31 32 33 32 32 33
73 79 79 72 71 76 81 79 69 59 62 76 88 84 71 60 52 44 45 56 67 71 73 77 77 69 56 43 38 41 38 33 38 45 41 35 32 31 27 24 22 22 21 19 18 16 14 13 13 12 11 11 11 12 13 13 15 16 16 17 18 20 22 23 22 22 23 23 22 22 23 24 24 25 26 26 26 27 27 28 29 29 31 32 33 34
77 83 81 81 80 71 65 74 80 74 73 81 87 87 81 73 62 48 44 59 79 87 90 97 99 94 84 69 59 59 57 48 44 44 42 37 34 31 28 26 25 23 23 22 20 19 17 15 15 14 13 13 13 14 15 16 17 18 18 18 17 18 19 19 19 19 18 18 17 17 17 17 17 18 18 18 19 19 21 23 25 26 27 27 28 30
83 90 90 96 95 71 52 61 78 85 88 90 90 90 87 81 72 56 43 57 84 94 93 95 95 94 92 83 72 65 59 50 43 39 35 33 32 30 29 27 26 25 24 23 22 21 20 19 18 17 17 16 16 16 17 17 17 17 17 17 16 16 16 16 17 17 16 16 16 15 14 14 13 13 13 13 13 14 16 17 19 21 22 22 24 26
90 95 96 101 92 62 41 48 64 76 89 95 93 91 89 84 78 62 46 54 77 89 89 88 86 86 86 81 74 66 54 43 38 36 33 32 31 30 30 28 27 27 27 26 25 24 23 22 21 20 20 19 19 19 18 18 18 17 17 17 17 16 16 16 16 16 15 15 15 14 14 14 13 13 13 13 14 14 15 15 17 18 19 20 21 22
Wind_Speed
33 34 40 45 47 46 44 42 40 38 35 30 27 28 28 27 29 31 28 24 22 23 26 25 24 24 21 20 19 19 19 18 19 20 21 21 22 24 22 19 18 15 14 12 15 20 23 24 24 24 25 25 25 25 25 26 25 25 25 25 25 24 24 24 23 22 22 20 19 17 16 15 15 15 15 15 15 15 15 14 14 14 13 12 10 8
34 40 45 47 46 43 41 40 37 36 35 32 28 26 28 30 33 33 29 25 21 23 29 28 27 27 24 22 23 23 22 19 17 18 21 22 22 23 23 21 18 18 16 15 16 21 24 26 26 26 26 27 26 26 26 26 26 25 25 25 25 25 24 23 22 21 20 18 17 15 14 13 13 13 13 13 14 15 15 15 15 14 13 12 11 9
37 45 47 43 41 40 38 37 36 35 34 34 31 26 28 32 34 32 30 28 22 22 28 29 29 30 28 26 25 25 24 19 16 16 18 21 23 24 24 22 20 20 19 17 17 20 24 27 28 27 28 28 27 26 26 26 26 26 26 26 26 25 24 23 22 20 18 17 16 15 14 14 14 14 14 14 15 16 16 16 15 14 13 12 11 10
39 42 45 40 37 38 39 37 35 34 34 35 35 33 34 36 32 24 22 22 19 18 23 24 27 31 30 28 28 26 23 19 16 17 19 21 24 24 24 24 22 21 20 19 18 20 23 26 29 29 29 29 28 27 27 27 28 28 27 26 26 25 23 22 20 19 18 18 18 17 16 16 17 17 17 17 17 17 17 16 16 15 14 13 12 11
42 38 36 36 38 38 37 38 36 34 35 38 39 40 39 39 37 29 23 21 17 17 21 20 22 30 32 29 29 26 23 21 18 18 21 22 23 24 26 28 25 22 22 22 20 19 21 24 28 30 30 29 30 28 28 29 29 28 27 26 26 24 23 22 20 19 20 20 19 19 19 19 19 19 19 18 17 17 16 15 15 14 14 13 13 12
44 39 28 25 34 40 37 38 40 37 36 36 40 43 40 37 37 34 30 25 18 17 23 19 14 22 30 29 26 23 22 22 20 20 20 21 22 24 27 28 27 24 24 24 22 20 21 23 27 30 30 30 30 29 28 28 28 27 27 26 26 25 24 23 22 21 22 21 21 20 20 19 17 16 13 11 11 12 13 14 15 15 14 14 13 12
43 42 34 21 22 33 40 40 40 38 32 30 38 41 38 36 34 33 30 22 15 15 20 18 11 16 27 30 26 20 20 19 18 18 17 16 20 22 25 27 28 27 25 24 24 23 22 23 26 28 30 30 30 29 28 28 28 27 27 27 27 26 25 24 24 24 23 23 22 20 19 17 15 12 9 8 8 10 11 13 15 16 15 14 13 13
42 41 41 33 22 24 37 42 41 39 31 28 37 39 34 33 34 34 29 22 19 19 23 25 20 19 27 36 35 26 24 22 21 21 17 16 17 18 21 25 28 29 27 25 24 25 23 22 24 26 28 28 27 28 29 28 27 27 27 27 27 26 26 26 25 25 25 23 22 20 18 17 15 12 11 11 10 10 11 12 14 15 16 15 14 14
44 40 41 41 34 27 33 38 38 39 35 31 35 33 31 30 30 30 26 22 21 20 23 25 20 17 23 36 39 33 32 31 28 26 22 19 19 17 17 20 24 27 29 27 24 25 24 22 21 23 25 26 26 29 29 28 27 26 27 27 27 27 26 26 26 26 25 24 22 21 19 17 15 14 14 14 14 13 12 12 13 14 15 16 16 15
43 40 37 37 41 38 34 32 31 34 36 35 31 22 21 25 24 22 20 18 17 17 22 22 16 14 18 30 37 35 35 36 33 29 25 22 20 17 16 16 19 24 28 30 27 25 25 23 20 21 24 26 27 28 28 28 28 28 28 28 28 28 27 27 27 26 25 24 23 22 20 18 16 16 16 16 16 15 14 13 14 14 16 17 17 16
43 38 35 34 38 38 34 31 29 29 30 32 29 17 11 15 17 17 17 16 13 14 21 23 20 15 15 26 36 40 40 36 33 30 27 25 22 18 15 14 18 23 27 30 29 27 26 25 22 22 25 28 28 29 29 30 30 30 30 30 30 29 29 29 28 27 26 25 24 23 21 19 17 17 16 16 16 15 15 14 14 15 16 17 17 16
44 36 33 35 34 30 30 33 33 29 26 26 25 20 13 10 12 13 14 15 12 10 11 17 21 19 18 23 29 37 41 36 33 31 28 26 22 19 16 14 17 22 26 30 31 28 27 28 27 24 24 27 30 30 31 31 32 32 32 31 31 31 31 31 30 29 28 27 25 24 22 21 20 19 18 17 16 15 15 15 15 15 17 18 18 17
43 41 36 33 31 29 26 28 32 32 29 26 24 23 18 9 8 11 10 9 11 9 4 6 12 18 27 31 31 35 39 36 33 32 30 27 23 20 18 15 15 19 23 28 31 30 28 29 30 26 22 25 30 32 31 31 32 33 32 32 32 32 31 31 31 30 29 28 27 25 24 22 22 21 20 19 17 17 16 16 16 16 16 18 18 17
32 38 41 35 30 32 30 28 31 32 32 31 27 26 21 10 6 9 9 5 7 9 9 10 11 16 25 32 36 37 38 38 37 34 31 29 25 22 18 15 15 17 20 25 29 30 29 29 30 29 25 23 26 30 32 32 32 33 33 33 33 32 32 31 31 31 30 29 28 26 25 24 23 23 22 21 20 18 17 17 17 16 16 16 18 19
23 24 40 43 36 35 34 33 30 27 28 32 30 28 24 18 11 6 6 6 4 3 10 15 13 12 13 17 23 25 26 28 31 33 33 31 27 23 20 18 18 17 18 21 25 29 30 29 30 31 30 26 24 25 29 32 33 33 33 33 33 32 32 32 32 32 31 30 28 27 26 25 25 24 23 23 22 21 19 18 17 16 15 15 16 19
28 23 35 41 39 38 34 32 31 23 22 28 30 29 27 28 23 7 2 6 3 1 7 15 15 13 11 15 18 19 21 23 24 27 29 30 29 26 24 22 20 18 19 19 21 25 28 30 30 31 32 31 28 25 26 29 31 33 33 33 33 31 31 32 31 31 31 30 29 29 28 27 26 25 25 24 23 22 21 20 19 17 16 15 15 19
24 23 31 30 31 37 33 30 32 27 23 25 28 32 30 29 27 14 5 5 4 5 7 14 19 19 17 21 24 23 24 25 25 27 28 29 29 27 27 24 19 18 19 18 18 19 22 27 30 31 32 32 32 29 27 27 27 29 30 32 32 31 31 32 31 31 30 30 30 30 29 29 28 27 26 25 24 23 22 22 21 20 18 16 16 18
20 19 28 29 25 28 30 30 29 29 29 25 27 32 27 20 21 20 10 5 6 7 6 13 20 18 15 19 24 26 28 29 29 30 30 29 28 26 26 24 20 18 17 17 17 16 18 22 27 31 32 32 32 31 29 28 27 26 26 27 29 30 31 31 31 31 31 31 31 31 31 31 30 29 27 26 25 25 25 24 23 22 20 18 17 18
24 16 16 22 25 23 27 30 27 29 33 29 27 28 23 15 17 22 15 6 8 7 5 9 15 18 22 22 16 15 18 22 25 28 31 32 31 29 27 25 21 18 17 16 15 15 14 15 20 27 31 33 33 32 30 29 29 28 26 26 25 26 27 28 29 31 31 32 32 33 33 32 32 31 30 28 27 27 27 26 25 23 22 20 19 18
25 20 11 13 19 20 25 31 30 31 33 33 29 24 22 18 16 24 23 11 7 7 5 5 6 14 26 32 29 23 19 18 17 19 24 29 32 31 30 28 24 19 17 16 14 14 13 13 16 21 26 31 32 32 31 31 32 31 29 28 27 25 25 26 27 27 27 29 31 33 33 34 34 33 32 31 30 30 30 28 26 25 24 23 22 20
25 22 15 13 17 21 27 33 33 34 36 37 32 24 24 22 14 18 25 20 11 6 5 5 6 5 6 10 15 18 19 20 20 18 19 21 23 23 25 29 27 21 17 16 15 15 15 14 14 16 21 26 30 31 32 33 33 31 30 30 29 28 28 27 26 24 23 23 25 27 30 32 34 33 33 32 31 31 31 30 29 28 26 25 24 23
30 24 19 16 19 23 26 27 27 29 33 36 35 32 30 27 19 12 14 22 22 13 7 5 8 6 4 3 2 1 4 10 15 18 19 18 16 14 16 21 26 26 23 20 19 18 17 17 16 15 17 21 26 31 33 35 34 33 32 30 29 30 29 28 28 26 23 22 20 21 23 25 28 30 31 32 32 32 32 32 31 31 30 28 26 25
33 28 22 18 18 19 21 21 21 23 29 33 35 37 36 31 28 19 11 18 24 20 14 10 10 13 17 19 13 8 8 7 7 11 14 17 18 16 16 18 22 25 26 25 25 25 24 22 20 19 18 18 22 27 31 34 34 33 32 30 30 30 28 27 28 26 25 24 23 21 20 20 22 24 27 29 31 32 32 32 32 32 32 31 28 26
29 26 24 20 16 16 16 18 22 25 32 36 34 37 38 35 35 31 24 21 20 19 17 12 10 12 12 10 7 6 7 6 5 6 7 12 17 19 20 20 20 21 24 27 28 27 26 26 25 24 21 19 19 23 28 32 33 33 32 31 30 30 27 27 28 27 26 26 25 24 23 22 21 22 23 25 27 28 30 31 33 34 34 32 30 28
21 21 23 18 11 13 14 15 22 27 31 35 34 35 38 39 38 37 32 26 21 22 24 17 11 9 9 8 7 5 6 7 7 7 7 8 12 16 19 21 21 21 21 23 23 22 21 22 23 21 18 17 17 19 24 28 31 32 31 31 30 28 27 28 28 27 26 26 26 26 25 24 23 23 24 24 24 24 25 27 30 32 34 33 31 29
15 16 22 19 10 11 11 11 18 24 24 27 32 34 36 39 39 36 31 25 21 23 29 28 18 12 13 14 11 9 10 9 8 8 9 9 10 13 15 17 20 20 19 19 19 18 16 15 16 15 13 14 17 19 22 26 30 30 30 30 29 28 28 29 29 28 27 27 28 28 27 26 25 25 24 25 24 23 23 23 25 28 31 32 31 30
12 12 19 22 16 11 9 9 16 25 24 23 27 30 33 35 36 37 33 28 25 24 29 37 33 26 27 24 17 15 14 13 12 9 9 10 9 11 12 14 17 19 18 17 17 17 16 14 14 12 10 12 19 23 24 26 29 31 31 30 29 29 29 29 29 29 29 29 29 30 29 28 27 27 26 25 24 23 23 23 23 25 28 30 31 31
9 8 12 17 16 14 14 12 15 21 24 23 25 28 30 30 32 37 35 31 30 27 27 37 41 38 41 35 25 20 16 13 12 11 11 11 9 11 12 12 13 14 15 16 17 17 18 17 16 13 10 10 18 25 26 26 29 30 31 30 30 29 29 29 30 31 31 31 31 32 31 29 29 28 28 27 26 25 25 24 24 24 26 28 31 32
5 4 7 10 11 11 14 15 14 16 18 20 24 28 31 30 30 33 34 35 37 34 31 36 40 41 45 42 36 32 25 19 17 16 16 15 11 12 12 11 11 11 13 15 16 17 18 18 18 16 12 9 14 23 26 26 28 30 31 31 30 29 30 31 32 32 32 33 33 34 32 30 30 30 30 29 29 28 27 26 25 25 25 27 29 32
3 2 5 8 10 8 9 13 15 16 17 19 23 27 31 33 32 31 32 36 40 41 40 40 39 40 43 41 39 37 34 32 31 29 25 19 15 13 12 13 13 14 14 13 14 15 16 19 20 19 16 13 11 18 24 26 28 31 31 30 30 31 32 33 33 33 34 34 35 34 32 31 31 31 32 32 31 31 30 28 27 26 26 26 28 32
5 5 7 8 10 10 8 9 12 15 17 21 24 27 29 31 33 33 32 33 35 37 41 42 41 44 44 39 36 35 35 35 36 33 28 24 22 21 20 20 19 18 18 15 13 13 14 18 22 20 19 16 12 14 21 26 28 30 31 30 30 31 32 34 35 34 35 35 35 34 32 31 32 32 33 33 33 33 32 30 29 29 28 27 27 31
7 8 9 9 10 11 9 8 12 15 16 20 26 31 32 32 34 33 33 32 31 30 35 38 40 42 42 37 35 34 33 33 33 32 32 32 31 30 29 28 24 20 19 17 17 14 11 15 21 21 19 18 17 16 19 24 29 30 31 31 30 31 32 34 34 34 34 35 35 34 32 32 33 33 33 34 34 34 34 33 32 31 30 29 28 30
11 10 9 6 7 10 11 9 10 11 13 16 22 29 35 37 37 35 35 34 31 28 29 30 31 36 38 35 34 35 34 32 31 32 33 34 33 33 32 30 27 23 20 18 20 19 15 14 17 19 19 18 20 21 20 23 28 29 29 29 29 30 32 32 33 33 34 34 34 34 33 32 32 33 34 35 34 34 34 34 35 35 33 32 30 30
12 11 9 8 7 9 13 12 10 10 9 8 11 19 27 32 36 39 40 40 37 34 31 27 27 31 32 29 28 29 31 32 31 29 29 29 30 31 31 29 28 25 22 20 21 23 21 17 15 17 18 16 19 24 24 25 27 29 29 29 29 30 30 29 30 31 32 33 33 33 32 32 32 33 34 33 33 34 34 35 37 38 36 34 33 32
13 11 11 11 9 9 12 11 7 8 9 7 8 13 15 18 24 30 33 36 39 40 40 38 36 33 29 26 23 22 24 27 28 28 27 27 27 28 29 29 28 25 23 22 23 25 24 20 16 16 17 17 18 23 27 27 27 28 30 30 29 28 27 26 26 28 29 31 31 31 30 30 30 31 32 32 32 33 35 36 38 39 39 37 36 34
15 13 11 11 10 8 8 9 8 6 4 9 10 11 11 13 16 18 19 22 26 32 37 41 41 38 36 33 28 22 21 23 25 28 28 26 27 28 28 28 27 25 22 22 24 26 26 22 19 17 17 20 21 22 26 29 28 28 30 31 30 30 28 27 26 27 29 29 29 29 29 29 29 29 29 29 31 33 34 35 38 39 40 40 38 37
16 15 14 13 13 12 11 14 17 15 10 13 15 12 11 14 15 16 17 18 21 25 28 30 31 33 35 36 32 27 24 24 26 27 27 26 26 26 26 26 25 24 22 21 23 27 27 23 21 19 18 21 24 23 24 27 29 28 28 29 29 30 31 32 30 29 30 30 29 28 28 28 27 26 27 29 30 32 33 35 37 38 40 41 41 40
19 19 19 16 14 15 15 14 15 14 13 16 19 17 15 15 14 15 17 19 23 26 27 27 26 25 27 29 30 29 28 30 30 25 22 22 22 22 23 23 24 24 22 19 21 26 30 26 23 21 19 21 27 28 26 26 27 27 28 28 27 27 30 33 33 32 31 32 31 29 27 26 25 25 27 28 29 31 33 34 35 36 37 40 42 42
22 23 24 21 16 16 18 16 14 12 9 8 10 14 15 13 12 14 15 19 25 27 27 27 26 24 24 24 26 29 32 36 32 22 18 19 19 19 20 21 23 23 20 18 18 23 29 30 27 23 20 21 27 30 31 29 28 27 28 28 27 27 28 29 31 32 33 33 33 30 27 27 26 25 24 22 23 27 30 31 33 34 35 37 38 39
22 26 28 27 22 18 19 18 18 17 15 14 12 11 12 10 9 10 9 10 15 19 21 24 25 25 25 24 23 27 32 34 29 22 21 21 20 20 20 20 22 23 21 18 17 19 25 29 29 26 22 21 25 29 31 32 31 30 29 28 28 27 27 26 27 29 32 33 32 31 30 30 29 27 23 21 20 22 23 26 29 31 32 34 33 32
15 22 27 29 27 22 20 20 20 18 21 24 21 16 16 13 10 11 11 6 7 11 12 15 19 23 26 27 26 26 28 29 27 25 25 24 22 21 21 21 22 23 22 21 18 17 20 24 27 27 24 22 23 26 28 30 31 32 33 33 32 29 26 27 28 29 29 30 31 32 32 30 27 25 23 22 21 21 21 22 24 27 29 31 31 31
9 14 19 26 27 23 20 20 18 17 21 27 26 22 22 18 12 15 17 14 15 18 16 14 15 18 22 26 28 27 26 26 26 26 27 26 23 21 22 22 22 23 24 23 21 18 18 20 22 24 25 24 25 25 24 24 26 27 29 31 31 28 26 27 29 30 30 31 31 32 30 27 26 26 24 23 23 22 22 22 24 26 28 29 31 33
9 10 13 20 24 22 20 17 13 12 17 23 27 26 25 22 21 22 22 20 21 23 22 21 20 20 21 24 26 27 27 26 26 27 27 27 24 23 24 23 23 23 24 24 23 20 18 19 21 23 25 26 27 27 26 23 22 23 25 26 26 26 26 26 27 29 31 32 32 29 27 27 28 28 26 24 24 24 24 25 27 29 29 29 31 32
11 12 11 13 17 19 19 19 17 11 7 10 21 29 29 26 25 26 24 22 22 22 23 24 24 24 24 24 24 25 26 27 26 27 28 27 25 25 25 25 24 24 24 23 23 21 19 20 22 24 26 28 29 29 28 25 23 23 24 25 25 26 26 27 28 29 30 32 31 28 29 31 32 31 30 29 29 29 28 27 28 30 31 30 30 32
10 11 11 13 15 18 20 23 22 15 9 10 19 27 30 29 27 25 23 23 22 22 24 26 26 25 25 26 25 25 27 27 27 27 30 29 27 26 27 27 26 26 25 24 24 23 22 22 23 24 25 27 28 28 27 26 25 25 26 26 26 26 27 28 29 30 30 31 31 30 32 34 34 34 34 34 34 33 31 29 30 31 32 32 32 32
12 12 15 17 18 20 25 30 29 20 15 17 19 22 27 31 28 24 23 22 22 23 25 28 28 27 27 29 28 28 30 29 26 27 30 30 28 28 29 29 28 27 26 26 26 25 25 24 24 25 26 26 26 27 27 27 27 28 28 28 27 27 28 28 28 29 29 30 31 32 33 34 34 35 36 36 36 36 35 35 35 34 34 35 36 36
14 14 17 20 21 21 24 30 32 27 22 20 19 20 26 30 28 23 22 22 21 23 25 27 27 27 28 30 29 29 31 29 25 25 28 29 29 30 30 30 29 28 27 27 26 26 27 26 27 27 28 29 29 29 29 29 29 29 30 29 28 28 28 28 27 27 28 28 29 30 31 31 31 32 34 35 36 37 38 39 39 39 39 40 41 42
13 14 17 20 23 25 26 25 28 30 29 24 20 18 21 25 26 22 20 20 20 21 22 20 19 20 23 26 26 25 26 27 27 27 28 29 30 31 31 30 29 28 26 26 25 26 27 28 29 30 30 31 30 29 29 28 28 28 29 29 28 28 28 28 27 27 27 27 28 29 30 31 32 33 35 36 38 39 40 41 43 44 45 45 47 47
15 19 20 19 22 28 30 27 25 27 30 29 25 21 19 20 23 24 23 20 18 19 20 16 14 16 20 23 25 26 26 28 29 30 30 30 31 32 31 31 30 29 27 26 26 27 28 29 30 30 31 31 30 29 28 28 27 28 28 28 28 28 28 29 29 28 28 28 29 29 30 31 33 34 36 38 39 40 41 42 44 45 46 47 49 50
17 20 19 18 23 28 31 29 26 26 27 27 26 26 23 19 20 25 27 23 15 16 18 17 15 17 20 23 25 26 28 30 31 31 30 29 29 30 31 30 30 29 28 27 27 27 28 28 28 28 28 28 28 28 27 27 27 27 28 28 28 28 29 29 30 30 30 31 31 32 33 34 35 36 38 39 40 42 43 43 44 46 47 48 49 50
20 21 19 20 26 30 33 32 30 29 27 23 21 24 26 21 18 22 26 24 17 14 15 16 15 15 17 20 22 23 26 29 31 31 30 28 27 28 28 28 27 26 24 24 24 25 26 27 27 27 26 26 26 26 26 25 26 26 27 28 28 29 30 30 31 32 32 33 34 35 36 37 39 40 42 43 44 45 45 46 47 48 49 50 51 52
Wind_Direction
208 212 215 216 216 216 217 219 222 224 228 230 229 228 233 238 238 237 239 246 247 249 253 258 265 271 278 282 286 295 295 281 267 258 248 243 244 243 240 237 234 235 236 225 212 207 203 200 198 197 198 199 201 201 203 203 201 200 199 198 196 196 197 199 201 202 203 203 201 198 197 197 199 203 206 208 207 208 210 213 217 218 218 218 215 210
213 218 221 220 220 220 220 222 224 226 229 232 232 231 234 238 240 240 241 244 247 251 252 256 264 268 274 280 280 282 285 282 269 259 253 247 247 248 246 242 235 231 229 224 215 208 205 203 201 200 200 201 204 204 205 205 203 202 201 199 197 198 199 200 202 203 203 202 201 199 198 198 200 204 208 209 209 210 212 216 220 221 220 219 216 210
218 223 225 223 223 223 223 224 226 227 229 232 233 234 235 236 240 244 247 248 249 253 255 261 270 271 273 277 275 275 280 286 281 266 260 256 254 253 250 245 238 229 225 226 222 212 208 205 204 203 204 204 205 207 207 207 206 204 203 200 199 200 201 202 203 203 203 202 202 203 203 204 204 206 208 209 210 210 212 214 218 219 218 217 215 212
217 226 228 225 223 223 224 224 225 226 229 231 231 232 235 235 238 244 250 250 247 250 255 264 273 272 271 272 269 270 276 282 286 277 267 259 255 255 253 250 244 233 224 227 227 219 212 208 207 207 206 206 206 207 207 207 207 206 204 202 202 203 204 205 204 203 203 204 205 204 203 204 205 206 207 209 211 212 212 213 216 218 218 216 215 213
217 225 230 226 222 223 223 224 224 223 227 230 231 232 235 237 237 240 246 248 249 251 252 263 279 275 269 267 265 266 268 271 277 277 268 260 255 251 248 246 247 241 229 227 227 226 223 216 212 210 208 208 209 210 210 209 209 208 207 205 205 206 207 205 203 202 204 205 206 204 202 202 204 206 208 211 216 218 218 219 221 221 220 218 217 216
222 225 228 226 223 222 222 225 224 223 225 230 233 233 235 239 240 244 249 253 264 266 257 259 277 276 269 265 264 265 262 262 269 271 267 265 261 254 245 240 243 243 233 227 227 230 232 224 218 214 210 211 212 213 212 211 211 210 209 208 207 208 208 205 202 202 204 205 205 204 205 207 209 211 212 213 218 223 225 226 227 226 225 222 220 220
226 226 225 224 224 222 222 225 226 223 223 230 235 234 236 241 242 245 248 251 262 266 259 256 257 275 275 266 260 261 259 256 258 263 267 264 259 255 250 243 241 241 233 228 227 228 231 229 225 221 216 215 215 214 213 214 213 212 211 210 209 209 208 205 203 204 205 205 206 207 208 212 215 216 210 202 205 213 220 223 227 229 228 225 222 223
227 225 224 224 224 220 221 224 226 223 221 230 238 237 236 240 242 244 246 248 256 265 266 263 258 267 273 264 258 254 255 256 252 255 261 263 258 254 250 246 243 242 235 230 229 229 231 233 231 228 222 220 219 215 213 214 214 213 212 212 211 210 208 206 206 207 208 208 209 211 213 215 216 213 207 201 198 203 211 217 224 229 230 226 221 221
228 225 225 225 221 219 221 224 227 224 222 229 237 240 240 240 243 246 247 250 258 266 266 259 249 251 262 263 261 258 256 256 252 250 254 263 269 262 250 244 242 243 238 232 229 231 232 234 235 231 225 223 221 217 215 214 213 213 213 213 213 210 208 207 207 209 211 211 213 214 217 218 218 215 212 210 207 208 212 216 220 225 228 226 221 219
231 230 232 230 224 225 229 229 228 226 225 230 236 243 246 243 244 244 242 246 252 255 253 247 235 241 262 262 261 261 257 251 248 249 253 261 272 274 262 248 243 243 239 232 229 229 230 232 236 234 226 221 219 219 216 214 212 212 212 212 212 210 208 207 208 210 213 215 216 217 219 221 222 222 220 221 219 219 223 225 225 225 226 225 222 221
232 234 234 233 231 235 241 238 233 228 228 233 233 228 226 229 228 229 231 236 247 252 248 244 237 242 267 265 258 256 252 248 249 250 252 258 265 270 266 253 248 246 240 233 229 228 228 227 230 231 226 220 218 218 215 213 211 210 211 211 210 210 209 209 210 212 215 217 220 221 222 223 225 226 227 229 229 230 233 237 236 234 231 227 223 223
229 232 232 232 235 238 240 241 239 234 227 228 227 215 206 208 209 221 229 228 239 251 245 242 240 237 247 255 257 256 252 250 251 249 249 254 258 263 268 263 255 251 245 238 232 229 227 225 225 224 221 218 217 217 215 214 212 210 211 211 210 211 211 212 213 215 217 220 222 222 223 224 225 227 229 231 234 236 238 241 243 241 238 234 230 228
225 227 232 235 237 234 229 230 232 231 225 220 217 209 207 204 203 219 222 222 236 243 241 232 227 230 240 249 256 259 258 254 248 246 247 249 253 260 269 272 263 256 250 242 234 230 228 226 224 220 216 213 215 216 215 216 215 213 213 212 212 213 214 215 216 217 220 222 224 224 224 225 226 228 229 231 232 235 237 239 241 242 242 241 239 237
222 226 230 231 234 233 227 218 215 217 215 211 206 200 199 195 196 217 215 226 250 239 230 223 224 240 251 258 261 260 262 260 253 248 244 244 250 256 263 269 267 258 252 245 237 232 230 227 224 220 216 213 213 214 215 215 217 216 216 216 216 216 217 219 219 219 221 224 226 227 227 228 229 229 230 231 232 234 235 237 240 243 243 242 240 239
210 221 225 223 225 229 227 222 220 219 215 213 208 203 205 206 205 213 208 218 256 222 199 201 216 241 244 256 264 261 261 263 259 253 247 243 245 251 258 262 263 257 249 244 239 234 233 231 227 223 219 216 216 215 214 215 216 217 218 219 219 219 220 222 222 222 223 225 226 228 229 230 231 231 231 231 233 234 235 236 239 242 243 242 239 235
211 221 226 223 224 228 227 225 226 223 216 216 213 209 214 216 213 216 227 209 222 297 193 195 217 234 231 245 257 257 258 259 258 257 252 245 242 247 255 258 259 254 245 242 239 235 233 232 230 228 223 220 218 216 217 216 216 217 218 219 220 220 222 224 225 226 226 227 229 230 231 232 233 233 232 232 233 235 236 237 239 241 242 243 239 234
210 223 229 223 223 227 228 227 222 214 208 208 206 208 216 220 216 217 234 207 215 266 223 212 233 245 251 259 254 249 253 254 254 255 251 246 242 246 253 256 257 251 243 245 246 242 237 232 230 230 227 224 220 218 220 221 220 221 220 220 221 220 221 224 226 228 229 231 232 234 234 235 235 235 234 234 235 237 238 239 240 241 242 241 240 236
210 221 230 225 223 225 226 228 226 220 215 207 203 207 210 214 218 219 230 227 220 251 236 220 240 247 244 257 258 250 249 249 251 252 251 248 243 245 251 253 251 246 248 255 255 255 250 238 232 231 230 228 224 221 222 225 226 226 224 223 223 222 223 226 228 229 231 232 234 236 237 239 239 238 237 236 236 237 239 239 240 242 243 243 242 240
217 220 231 226 226 227 221 219 217 218 221 218 218 216 203 194 202 204 213 230 217 235 255 226 238 244 235 236 245 247 245 248 251 251 252 250 244 243 247 249 248 245 250 256 255 252 246 234 229 229 230 231 228 225 223 223 226 229 229 228 226 225 226 228 229 231 233 234 235 236 237 239 241 241 240 238 237 237 239 240 241 243 244 244 244 242
216 218 221 216 221 223 214 207 201 205 214 219 226 221 206 206 202 195 203 211 204 224 252 231 232 249 250 249 247 245 243 243 248 250 251 250 247 245 245 245 246 247 248 252 256 250 239 231 227 226 228 230 230 228 224 222 223 226 229 231 230 228 226 225 227 229 232 234 235 236 237 238 239 241 241 240 238 238 239 241 242 243 243 244 244 242
213 215 215 205 207 209 206 204 202 203 207 210 214 206 199 208 205 198 209 211 208 224 234 244 252 245 260 265 255 251 247 243 242 242 244 250 251 248 245 242 242 244 246 250 254 252 252 255 247 233 230 230 230 229 227 225 224 224 226 229 230 231 230 229 230 230 230 230 232 234 235 237 239 240 241 240 239 239 239 239 240 241 243 243 243 242
211 210 208 200 199 203 207 210 212 215 215 214 212 205 202 204 195 190 213 213 216 226 218 238 267 251 235 260 259 257 255 249 243 236 236 240 237 236 238 238 237 239 241 247 252 254 260 267 263 249 238 232 230 228 227 228 226 224 225 226 227 229 230 231 232 233 232 231 231 231 230 232 235 237 239 240 240 239 238 238 238 240 242 244 243 242
212 210 208 206 206 208 212 217 219 223 225 224 223 219 213 207 199 198 209 207 210 222 229 243 272 267 264 266 263 262 264 264 257 242 235 232 227 227 232 235 237 237 239 244 249 252 257 263 267 265 258 247 239 232 228 228 228 226 225 224 226 228 228 228 231 232 232 234 236 235 233 232 231 233 235 236 237 238 238 238 237 238 241 243 243 241
209 208 207 210 217 216 213 217 219 223 224 222 224 224 218 213 211 214 221 217 209 211 214 228 255 254 258 266 263 275 268 247 245 252 244 237 231 227 228 231 233 235 239 244 246 249 256 263 268 270 267 258 248 238 231 228 228 228 226 225 226 227 227 227 229 229 229 231 234 235 235 235 234 234 235 236 236 236 237 237 237 238 239 241 241 238
203 204 202 202 213 215 212 218 220 222 222 220 221 222 221 223 223 221 222 223 222 216 209 216 239 229 224 238 247 270 267 248 250 253 250 253 243 232 231 231 228 229 239 244 245 250 258 263 265 268 267 259 248 240 233 227 226 227 227 226 225 225 225 226 227 226 225 228 231 231 232 233 234 236 238 239 240 239 238 237 236 236 236 238 237 234
193 192 193 198 208 208 206 211 212 212 215 220 223 223 224 225 224 221 219 217 222 222 215 219 230 231 235 242 248 253 253 257 265 254 252 265 255 237 234 233 231 235 243 248 251 258 261 260 263 270 271 253 236 232 229 223 222 223 224 225 224 223 223 225 225 224 222 224 227 228 230 232 234 237 239 241 242 243 242 241 238 236 235 235 233 230
182 180 189 204 218 218 204 188 198 210 214 216 219 222 224 225 224 223 221 217 220 223 224 229 234 243 249 247 249 254 252 258 262 256 267 277 258 235 234 236 237 240 246 252 258 261 259 256 259 269 273 245 228 225 225 222 219 220 221 221 221 221 222 223 224 222 221 222 224 226 227 230 235 239 241 243 243 245 246 246 243 239 236 234 230 227
167 171 187 204 218 225 216 195 192 210 217 216 217 219 221 222 223 224 222 222 224 223 231 237 237 243 248 248 250 253 252 258 256 248 265 278 264 246 247 247 243 240 247 259 268 265 259 257 257 263 270 247 227 225 226 223 220 218 219 219 219 219 220 221 221 220 220 220 222 224 225 227 232 238 242 243 243 245 246 246 246 243 240 236 230 226
165 179 202 210 221 224 217 210 209 216 221 221 219 219 219 219 220 223 224 228 229 228 236 243 242 245 250 251 251 251 250 250 244 245 263 275 266 256 254 247 243 247 258 271 276 269 260 258 257 258 259 244 224 223 225 224 220 218 218 218 218 218 219 218 217 217 218 220 222 224 224 224 229 235 239 241 242 243 245 245 246 245 243 239 232 227
216 241 236 230 236 234 212 214 226 234 238 235 226 221 221 220 221 225 227 229 232 235 241 246 248 250 254 257 258 258 258 258 255 258 266 266 254 247 245 243 247 258 269 281 285 273 260 257 259 259 257 249 229 221 222 223 221 218 218 219 219 218 217 216 215 215 217 221 223 224 223 223 227 231 235 239 241 243 244 245 246 246 245 242 236 230
251 264 264 267 267 254 222 213 229 237 245 247 238 229 226 225 226 228 230 230 233 237 241 245 249 252 254 259 263 264 265 265 263 264 261 252 244 243 248 256 266 271 271 274 276 268 256 255 259 261 259 254 245 230 223 222 220 218 219 220 219 219 218 217 217 217 219 222 223 223 222 223 227 230 233 237 240 242 243 244 246 246 246 245 240 233
267 276 282 297 293 269 246 235 242 248 257 258 247 236 232 232 233 233 234 235 236 239 243 244 248 252 254 258 263 266 267 267 265 262 258 254 251 253 258 266 273 277 272 264 257 250 242 245 252 258 257 249 243 238 229 224 221 218 219 220 220 220 220 220 220 220 221 223 223 223 222 222 226 229 232 236 238 240 242 244 246 246 245 244 242 238
270 280 289 298 295 275 261 262 274 279 274 261 248 240 237 237 240 242 241 239 239 242 246 248 251 254 257 259 262 264 266 265 263 263 264 263 262 263 266 269 273 275 272 262 252 246 243 240 243 248 252 246 236 233 231 225 221 218 218 219 220 221 222 223 223 223 223 223 223 222 222 222 224 227 231 234 236 237 239 242 246 247 245 244 243 241
267 272 275 273 281 277 267 274 296 289 263 241 233 237 239 241 244 246 246 245 244 245 248 253 256 256 257 260 262 264 264 264 264 267 270 270 268 267 267 270 273 274 272 265 255 249 246 242 238 240 244 244 234 229 228 225 219 217 216 216 217 220 222 223 224 225 226 227 226 225 224 223 224 227 231 233 235 236 237 240 244 246 245 244 243 242
257 258 262 261 260 272 277 278 278 258 236 206 211 230 237 242 245 248 251 252 251 251 253 254 254 252 253 257 262 267 266 263 261 262 265 267 268 268 268 270 272 271 270 267 258 248 243 240 238 238 239 242 237 228 226 227 221 217 217 217 218 220 222 223 223 224 227 228 229 230 230 228 228 229 233 235 236 237 238 238 240 243 244 244 243 242
249 246 247 248 241 247 262 242 231 257 232 192 218 247 247 244 250 254 255 252 249 251 253 253 253 253 254 256 260 263 266 264 259 254 255 259 263 266 268 269 269 267 265 263 256 246 240 238 238 237 238 242 241 231 227 229 226 221 220 221 222 224 226 226 224 223 225 227 228 230 231 232 233 234 237 239 239 239 240 239 240 242 243 244 244 243
239 229 226 232 230 227 238 242 251 276 274 232 239 260 252 245 251 255 255 250 243 245 248 249 252 254 255 257 257 255 259 265 260 251 248 253 258 262 265 265 264 264 261 260 255 245 238 236 236 237 239 242 240 233 228 229 230 229 227 226 226 226 227 227 226 225 228 231 231 231 233 235 238 242 243 243 242 240 240 241 242 242 243 245 246 245
226 220 219 227 229 224 232 250 259 266 262 247 248 253 250 250 256 261 269 264 250 245 246 246 248 251 253 256 254 249 252 259 258 249 245 252 258 262 262 259 257 258 258 259 259 248 239 237 236 236 240 242 238 235 234 234 234 234 232 230 230 230 228 227 226 227 231 235 235 236 239 241 245 250 249 248 247 245 242 242 243 244 244 246 248 249
222 220 219 225 231 222 219 231 241 239 232 224 228 235 237 246 264 278 286 275 258 251 250 248 247 248 249 252 251 247 249 253 254 247 244 255 263 265 264 258 251 252 254 258 260 251 242 240 238 237 241 244 241 239 239 239 238 235 233 232 234 235 232 227 226 228 232 236 236 237 241 244 247 251 251 250 253 252 247 244 243 244 244 246 249 252
218 220 220 223 229 226 221 230 242 243 235 223 218 224 228 238 271 282 277 267 257 254 253 251 249 248 246 247 247 246 249 253 255 248 244 252 262 267 269 263 251 249 254 256 255 250 244 243 241 240 242 243 239 237 237 237 237 235 233 234 239 241 238 233 230 230 231 232 234 239 244 247 250 251 247 245 251 254 250 245 242 242 243 244 246 249
215 220 222 223 225 226 226 236 246 252 249 239 235 244 254 260 270 258 243 242 248 249 252 251 247 246 245 245 246 248 251 254 253 247 243 247 256 263 268 265 255 250 254 257 254 247 242 241 241 241 241 236 228 226 227 228 230 231 230 233 240 244 243 238 235 232 230 230 233 238 242 244 245 243 240 239 241 242 241 243 245 244 244 244 244 244
212 214 221 224 224 223 226 237 249 259 256 244 236 245 260 263 258 251 254 260 256 252 252 248 245 248 248 245 246 250 252 252 249 245 242 243 250 257 261 261 257 253 254 258 258 251 241 237 237 239 239 232 223 222 224 224 225 228 229 231 236 239 239 239 237 236 236 237 237 238 237 235 233 233 234 234 232 232 238 244 247 247 246 244 244 244
225 217 223 224 221 221 225 233 244 257 260 248 238 241 252 256 256 260 266 269 264 257 254 250 248 249 250 247 246 247 248 248 247 242 238 238 242 249 251 252 253 254 255 257 257 254 246 240 237 236 235 231 227 227 232 234 233 233 233 233 235 236 238 240 240 239 240 242 242 239 233 228 227 229 233 234 235 239 245 245 244 245 244 242 242 244
241 230 236 232 217 215 221 223 222 231 257 248 235 238 247 254 260 267 271 273 270 260 252 250 248 246 246 246 244 243 242 242 242 239 235 233 235 239 241 240 241 247 251 252 252 252 249 247 246 240 231 226 226 229 234 237 236 237 238 239 239 240 241 243 243 241 240 241 242 236 225 221 224 229 233 234 236 240 242 242 240 239 239 239 241 244
230 221 242 246 224 219 227 224 217 214 201 195 214 231 241 249 257 266 271 273 269 256 247 246 246 243 241 240 240 240 237 235 237 239 236 233 230 230 230 230 231 235 239 241 245 248 249 250 252 248 236 225 223 227 230 232 233 236 239 240 239 240 242 242 242 241 239 238 236 229 221 220 224 229 232 233 235 238 241 245 244 241 239 239 242 246
241 248 265 264 246 237 235 227 219 212 204 204 212 225 237 245 254 265 274 276 268 252 242 241 241 240 236 234 234 234 231 228 230 234 235 232 228 224 222 221 223 225 226 229 234 239 244 246 249 251 248 241 235 233 234 237 237 238 240 241 240 240 241 241 241 241 240 237 233 229 228 229 231 234 237 240 242 245 248 250 250 248 244 242 242 247
268 277 278 271 262 255 244 230 221 216 212 213 219 226 237 245 251 260 275 282 272 250 237 236 238 235 231 229 226 225 226 224 219 219 224 226 222 218 216 216 216 216 216 218 222 227 233 238 242 244 248 249 247 244 242 243 243 242 242 244 244 243 242 242 242 242 242 241 238 238 241 244 246 248 250 252 254 255 256 255 255 255 253 251 250 250
288 287 278 270 263 257 250 235 222 218 217 218 216 215 228 241 245 250 268 283 271 243 227 225 226 220 216 215 213 211 215 216 210 204 206 211 213 211 210 210 210 210 211 212 215 219 225 230 234 236 238 242 244 243 242 242 242 241 242 244 245 244 243 243 244 244 244 245 245 247 250 253 255 257 258 259 260 261 261 260 258 257 257 256 255 255
285 280 275 274 268 258 248 234 222 220 221 221 218 213 217 231 240 245 257 268 256 226 209 201 195 188 185 187 189 190 194 199 201 198 195 198 204 206 205 205 205 205 206 209 212 215 220 223 226 228 230 232 235 236 236 236 237 238 239 241 242 243 243 244 246 247 248 250 251 252 254 255 256 257 258 258 259 259 259 259 259 258 257 257 256 256
282 278 277 278 269 255 242 232 230 231 226 220 220 222 223 230 244 250 253 252 234 206 195 188 182 179 176 174 176 180 183 186 190 192 191 191 196 201 203 202 203 203 204 207 210 214 217 220 222 224 225 227 229 232 234 235 237 238 240 242 244 245 246 248 249 250 252 254 255 256 257 257 258 259 259 259 259 259 260 260 260 261 261 260 260 260
284 280 275 270 260 246 234 229 233 237 233 225 221 223 225 227 235 247 253 250 231 199 182 178 176 178 178 173 170 173 178 182 184 187 189 190 192 197 201 200 200 202 203 206 211 215 218 221 223 225 227 229 231 233 235 237 239 241 243 246 248 249 251 253 254 255 256 256 257 258 259 260 261 261 262 262 261 261 261 260 261 262 263 263 263 263